Regional Weather Roundup
Issued by NWS

Home | Current Version | Previous Version | Text Only | Print | Product List | Glossary On
Versions: 1 2 3 4 5 6 7 8 9 10 11 12 13 14 15 16 17 18 19 20 21 22 23 24 25 26 27 28 29 30 31 32 33 34 35 36 37 38 39 40 41 42 43 44 45 46 47 48 49 50
000
ASUS44 KJAN 291710
RWRMS

MISSISSIPPI HOURLY WEATHER ROUNDUP
NATIONAL WEATHER SERVICE JACKSON MS
1200 PM CDT MON MAY 29 2017

NOTE: "FAIR: INDICATES FEW OR NO CLOUDS BELOW 12,000 FEET WITH NO
SIGNIFICANT WEATHER AND/OR OBSTRUCTIONS TO VISIBILITY.

MSZ001>002-007>008-010>013-018>021-025>028-034>036-291800-
NORTHWEST MISSISSIPPI

CITY           SKY/WX    TMP DP  RH WIND       PRES   REMARKS
BATESVILLE     FAIR      74  67  79 CALM      30.06S
CLARKSDALE       N/A     77  73  88 MISG      30.05S
CLEVELAND      CLOUDY    73  73  99 SW13      30.06R
GREENWOOD      CLOUDY    77  69  76 VRB6      30.05F
GREENVILLE     CLOUDY   N/A N/A N/A MISG      30.05R
OLIVE BRANCH   PTSUNNY  N/A N/A N/A CALM      30.03S
OXFORD         PTSUNNY   73  64  73 S6        30.07S
TUNICA         MOSUNNY   79  68  69 CALM      30.05S
WINONA         FAIR      73  68  86 S6        30.07S
$$

MSZ003>006-009-014>017-022>024-029>033-037>039-291800-
NORTHEAST MISSISSIPPI

CITY           SKY/WX    TMP DP  RH WIND       PRES   REMARKS
COLUMBUS AFB   CLOUDY    82  68  61 W17       29.93S
CORINTH        FAIR      77  66  69 CALM      30.03F
GOLDN TRIANGLE MOSUNNY   79  64  61 W5        30.01S
STARKVILLE     FAIR      79  66  65 W7        30.07F
TUPELO         CLOUDY    77  66  68 S8        30.05S
$$

MSZ040-058-291800-
CENTRAL MISSISSIPPI

CITY           SKY/WX    TMP DP  RH WIND       PRES   REMARKS
JACKSON INTL   CLOUDY    74  65  73 SW6       30.06F
JACKSON HAWKNS CLOUDY    74  64  71 W7        30.06F
MADISON        FAIR      72  63  73 SW5       30.06F
MERIDIAN KEY   CLOUDY    80  69  69 CALM      30.05F
MERIDIAN NAS   CLOUDY    81  63  54 CALM      30.05F
VICKSBURG VKS  SUNNY     75  66  73 VRB6      30.02F
$$

MSZ059>079-291800-
SOUTH MISSISSIPPI

CITY           SKY/WX    TMP DP  RH WIND       PRES   REMARKS
COLUMBIA       FAIR      75  68  78 NE6       30.05F
HATTIESBURG    CLOUDY    77  65  66 W7        30.07F
LAUREL         FAIR      76  68  75 SW5       30.06F
MCCOMB         CLOUDY    76  65  68 CALM      30.03F
NATCHEZ        CLOUDY    71  67  87 CALM      30.04F
PINE BELT      CLOUDY    75  64  69 S6        30.08F
$$

MSZ080>082-291800-
COASTAL MISSISSIPPI

CITY           SKY/WX    TMP DP  RH WIND       PRES   REMARKS
BAY ST LOUIS   MOSUNNY   75  72  88 E5        30.06
BILOXI         CLOUDY    80  69  68 W3        30.05S
PASCAGOULA     CLOUDY    84  69  60 VRB5      30.05S
GULFPORT       CLOUDY    82  70  66 NW8       30.05R
$$

LAZ007>009-015>016-023>026-291800-
NORTHEAST LOUISIANA

CITY           SKY/WX    TMP DP  RH WIND       PRES   REMARKS
BASTROP        FAIR      78  68  71 S6        30.06F
TALLULAH/VBURG CLOUDY    75  67  76 SE5       30.04F
VIDALIA        PTSUNNY   72  66  81 N3        30.03F
$$



USA.gov is the U.S. government's official web portal to all federal, state and local government web resources and services.